CW5404 Weather Reports


time (UTC)temp
C
wind
direction
speed
KPH
gust
KPH
rain 1hr
cm
rain 24hr
cm
rain mn
cm
humidity
%
barometer
mb
20260508151909 10 172 1.6 8.0 0.00 0.00 0.00 84 1020.3
20260508151409 10 152 0.0 4.8 0.00 0.00 0.00 87 1020.3
20260508150409 9 178 3.2 3.2 0.00 0.00 0.00 91 1020.5
20260508145409 8 360 0.0 0.0 0.00 0.00 0.00 91 1020.3
20260508144910 7 360 0.0 0.0 0.00 0.00 0.00 90 1020.3
20260508144409 7 360 0.0 0.0 0.00 0.00 0.00 90 1020.3
20260508143909 7 360 0.0 0.0 0.00 0.00 0.00 90 1020.3
20260508143410 7 360 0.0 1.6 0.00 0.00 0.00 91 1020.3
20260508142909 7 360 0.0 3.2 0.00 0.00 0.00 91 1020.3
20260508141909 7 360 0.0 0.0 0.00 0.00 0.00 91 1020.2
20260508141409 7 360 0.0 0.0 0.00 0.00 0.00 91 1020.2
20260508140409 7 360 0.0 0.0 0.00 0.00 0.00 92 1020.1
20260508135409 7 360 0.0 0.0 0.00 0.00 0.00 92 1020.2
20260508134909 6 360 0.0 0.0 0.00 0.00 0.00 92 1020.2
20260508134409 6 360 0.0 0.0 0.00 0.00 0.00 92 1020.2
20260508133909 6 360 0.0 0.0 0.00 0.00 0.00 92 1019.8
20260508132909 6 195 0.0 0.0 0.00 0.00 0.00 91 1019.8
20260508132409 6 195 0.0 0.0 0.00 0.00 0.00 91 1019.7
20260508131909 6 195 0.0 0.0 0.00 0.00 0.00 91 1019.7
20260508131409 6 195 0.0 0.0 0.00 0.00 0.00 90 1019.7
20260508130909 6 195 0.0 0.0 0.00 0.00 0.00 90 1019.5
20260508130409 6 195 0.0 0.0 0.00 0.00 0.00 90 1019.5
20260508125909 6 195 0.0 0.0 0.00 0.00 0.00 90 1019.5
20260508125409 6 195 0.0 0.0 0.00 0.00 0.00 90 1019.3
20260508124909 6 195 0.0 0.0 0.00 0.00 0.00 89 1019.3
20260508124409 6 195 0.0 0.0 0.00 0.00 0.00 89 1019.3
20260508123908 6 195 0.0 0.0 0.00 0.00 0.00 89 1019.1
20260508122909 6 195 0.0 0.0 0.00 0.00 0.00 89 1019.1
20260508121909 6 195 0.0 0.0 0.00 0.00 0.00 89 1019.0
20260508121409 6 195 0.0 0.0 0.00 0.00 0.00 89 1019.0
20260508120908 6 195 0.0 0.0 0.00 0.00 0.00 89 1018.6
20260508120409 6 195 0.0 0.0 0.00 0.00 0.00 89 1018.6
20260508115908 6 195 0.0 0.0 0.00 0.00 0.00 89 1018.6
20260508114908 6 195 0.0 0.0 0.00 0.00 0.00 89 1018.6
20260508114409 6 195 0.0 0.0 0.00 0.00 0.00 89 1018.6
20260508113909 6 195 0.0 0.0 0.00 0.00 0.00 89 1018.7
20260508113408 6 195 0.0 0.0 0.00 0.00 0.00 89 1018.7
20260508112908 6 195 0.0 0.0 0.00 0.00 0.00 89 1018.7
20260508112408 6 195 0.0 0.0 0.00 0.00 0.00 89 1018.5
20260508111908 6 195 0.0 0.0 0.00 0.00 0.00 89 1018.5
20260508111408 7 195 0.0 0.0 0.00 0.00 0.00 89 1018.5
20260508110908 7 194 0.0 0.0 0.00 0.00 0.00 89 1018.1
20260508105908 7 360 0.0 0.0 0.00 0.00 0.00 89 1018.1
20260508105408 7 360 0.0 0.0 0.00 0.00 0.00 89 1017.9
20260508104908 7 360 0.0 0.0 0.00 0.00 0.00 89 1017.9
20260508104407 6 360 0.0 0.0 0.00 0.00 0.00 89 1017.9
20260508103907 6 360 0.0 0.0 0.00 0.00 0.00 89 1017.8
20260508103408 6 360 0.0 0.0 0.00 0.00 0.00 89 1017.8
20260508102908 6 195 0.0 0.0 0.00 0.00 0.00 89 1017.8
20260508101908 6 195 0.0 0.0 0.00 0.00 0.00 89 1017.7
20260508101407 6 195 0.0 0.0 0.00 0.00 0.00 89 1017.7
20260508100407 6 195 0.0 0.0 0.00 0.00 0.00 89 1017.6
20260508095908 6 195 0.0 0.0 0.00 0.00 0.00 89 1017.6
20260508095407 6 195 0.0 0.0 0.00 0.00 0.00 89 1017.5
20260508093908 7 195 0.0 0.0 0.00 0.00 0.00 89 1017.2
20260508092907 7 195 0.0 0.0 0.00 0.00 0.00 89 1017.2
20260508091907 7 195 0.0 0.0 0.00 0.00 0.00 89 1017.1
20260508091407 7 195 0.0 0.0 0.00 0.00 0.00 89 1017.1
20260508090907 7 195 0.0 0.0 0.00 0.00 0.00 89 1016.9
20260508090407 7 360 0.0 0.0 0.00 0.00 0.00 89 1016.9
20260508085907 7 360 0.0 0.0 0.00 0.00 0.00 89 1016.9
20260508085407 7 194 0.0 0.0 0.00 0.00 0.00 89 1017.0
20260508084907 7 360 0.0 0.0 0.00 0.00 0.00 89 1017.0
20260508084407 7 360 0.0 0.0 0.00 0.00 0.00 89 1017.0
20260508083407 7 195 0.0 0.0 0.00 0.00 0.00 89 1016.9
20260508082907 8 360 0.0 0.0 0.00 0.00 0.00 89 1016.9
20260508082407 8 360 0.0 0.0 0.00 0.00 0.00 89 1016.8
20260508081907 8 360 0.0 0.0 0.00 0.00 0.00 89 1016.8
20260508081406 8 360 0.0 0.0 0.00 0.00 0.00 89 1016.8
20260508080406 8 360 0.0 0.0 0.00 0.00 0.00 88 1016.6
20260508075906 8 360 0.0 0.0 0.00 0.00 0.00 88 1016.6
20260508073407 8 360 0.0 0.0 0.00 0.00 0.00 86 1016.6
20260508071907 9 360 0.0 0.0 0.00 0.00 0.00 86 1016.4
20260508071406 9 360 0.0 0.0 0.00 0.00 0.00 86 1016.4
20260508070907 9 360 0.0 0.0 0.00 0.00 0.00 86 1016.3
20260508065936 10 360 0.0 0.0 0.00 0.00 0.00 85 1016.3
20260508064907 10 360 0.0 0.0 0.00 0.00 0.00 85 1016.3
20260508064407 10 360 0.0 0.0 0.00 0.00 0.00 84 1016.3
20260508062906 10 195 0.0 0.0 0.00 0.00 0.00 84 1016.4
20260508062406 11 195 0.0 0.0 0.00 0.00 0.00 84 1016.3
20260508061907 11 360 0.0 0.0 0.00 0.00 0.00 83 1016.3
20260508060907 11 360 0.0 0.0 0.00 0.00 0.00 82 1016.2
20260508060407 11 360 0.0 0.0 0.00 0.00 0.00 81 1016.2
20260508055906 11 360 0.0 0.0 0.00 0.00 0.00 81 1016.2
20260508055406 11 360 0.0 0.0 0.00 0.00 0.00 80 1016.3
20260508054906 11 195 0.0 0.0 0.00 0.00 0.00 80 1016.3
20260508053907 12 195 0.0 0.0 0.00 0.00 0.00 79 1016.3
20260508053406 12 195 0.0 0.0 0.00 0.00 0.00 79 1016.3
20260508052406 12 195 0.0 0.0 0.00 0.00 0.00 78 1016.3
20260508050906 13 195 0.0 0.0 0.00 0.00 0.00 76 1016.2
20260508050406 13 195 0.0 0.0 0.00 0.00 0.00 76 1016.2
20260508045406 13 195 0.0 1.6 0.00 0.00 0.00 75 1016.1
20260508043406 14 196 0.0 3.2 0.00 0.00 0.00 72 1016.1
20260508042906 14 255 0.0 1.6 0.00 0.00 0.00 71 1016.1
20260508042406 14 255 1.6 1.6 0.00 0.00 0.00 71 1016.0
20260508041906 14 256 0.0 0.0 0.00 0.00 0.00 69 1016.0
20260508041406 15 256 0.0 0.0 0.00 0.00 0.00 69 1016.1
20260508040906 15 256 0.0 0.0 0.00 0.00 0.00 68 1015.8
20260508040406 15 256 0.0 0.0 0.00 0.00 0.00 67 1015.8
20260508035906 15 256 0.0 0.0 0.00 0.00 0.00 67 1015.8
20260508035406 15 256 0.0 0.0 0.00 0.00 0.00 65 1015.5
20260508034906 15 256 0.0 0.0 0.00 0.00 0.00 64 1015.5
20260508034405 16 256 0.0 0.0 0.00 0.00 0.00 64 1015.5
20260508033906 16 256 0.0 0.0 0.00 0.00 0.00 63 1015.1
20260508032905 16 256 0.0 0.0 0.00 0.00 0.00 62 1015.2
20260508032406 16 256 0.0 1.6 0.00 0.00 0.00 61 1015.1
20260508031905 17 256 0.0 1.6 0.00 0.00 0.00 61 1015.1
20260508031405 17 256 0.0 1.6 0.00 0.00 0.00 62 1015.1
20260508030935 17 255 0.0 1.6 0.00 0.00 0.00 62 1015.0
20260508030406 17 255 0.0 1.6 0.00 0.00 0.00 60 1015.0
20260508025906 17 255 0.0 1.6 0.00 0.00 0.00 61 1015.0
20260508025406 17 255 0.0 0.0 0.00 0.00 0.00 61 1015.1
20260508023905 18 255 0.0 1.6 0.00 0.00 0.00 62 1015.1
20260508023405 18 255 1.6 1.6 0.00 0.00 0.00 61 1015.1
20260508022905 18 257 0.0 3.2 0.00 0.00 0.00 62 1015.1
20260508022405 18 257 0.0 3.2 0.00 0.00 0.00 61 1015.1
20260508021905 18 257 0.0 3.2 0.00 0.00 0.00 61 1015.1
20260508021405 19 257 0.0 3.2 0.00 0.00 0.00 61 1015.1
20260508020905 19 256 1.6 3.2 0.00 0.00 0.00 60 1015.1
20260508020405 19 102 1.6 3.2 0.00 0.00 0.00 58 1015.1
20260508015905 20 103 3.2 3.2 0.00 0.00 0.00 59 1015.1
20260508015405 20 105 0.0 3.2 0.00 0.00 0.00 59 1015.1
20260508014905 20 79 0.0 4.8 0.00 0.00 0.00 57 1015.1
20260508014405 20 86 0.0 8.0 0.00 0.00 0.00 56 1015.1
20260508013905 20 96 0.0 8.0 0.00 0.00 0.00 56 1015.1
20260508013405 20 42 1.6 6.4 0.00 0.00 0.00 54 1015.1
20260508012905 20 31 4.8 6.4 0.00 0.00 0.00 55 1015.1
20260508012405 20 61 1.6 6.4 0.00 0.00 0.00 55 1015.5
20260508011905 20 22 0.0 8.0 0.00 0.00 0.00 55 1015.5
20260508010904 20 38 3.2 8.0 0.00 0.00 0.00 54 1015.5
20260508010404 20 61 3.2 8.0 0.00 0.00 0.00 55 1015.5
20260508005904 20 59 0.0 4.8 0.00 0.00 0.00 53 1015.5
20260508005404 20 58 0.0 4.8 0.00 0.00 0.00 54 1015.5
20260508004904 20 48 4.8 6.4 0.00 0.00 0.00 53 1015.5
20260508004404 20 38 4.8 8.0 0.00 0.00 0.00 52 1015.5
20260508003404 21 63 4.8 8.0 0.00 0.00 0.00 54 1015.5
20260507235404 21 71 4.8 8.0 0.00 0.00 0.00 52 1015.8
20260507234404 21 106 6.4 9.7 0.00 0.00 0.00 53 1015.8
20260507231904 20 62 4.8 6.4 0.00 0.00 0.00 52 1016.2
20260507230404 20 195 4.8 9.7 0.00 0.00 0.00 54 1016.3
20260507224904 20 5 3.2 9.7 0.00 0.00 0.00 53 1016.7
20260507224403 20 54 1.6 8.0 0.00 0.00 0.00 55 1016.7
20260507223903 20 127 3.2 6.4 0.00 0.00 0.00 55 1016.8
20260507223403 20 88 0.0 9.7 0.00 0.00 0.00 53 1016.8
20260507222903 20 129 0.0 9.7 0.00 0.00 0.00 54 1016.8
20260507222403 20 168 3.2 8.0 0.00 0.00 0.00 55 1017.0
20260507221903 20 117 4.8 9.7 0.00 0.00 0.00 55 1017.0
20260507221403 20 42 3.2 9.7 0.00 0.00 0.00 53 1017.0
20260507220903 20 170 0.0 8.0 0.00 0.00 0.00 56 1017.2
20260507220403 20 101 3.2 6.4 0.00 0.00 0.00 57 1017.2
20260507215904 20 175 3.2 8.0 0.00 0.00 0.00 56 1017.2
20260507215403 20 174 6.4 8.0 0.00 0.00 0.00 56 1017.5
20260507214434 19 130 1.6 11.3 0.00 0.00 0.00 56 1017.5
20260507213903 19 175 3.2 9.7 0.00 0.00 0.00 55 1017.6
20260507212905 18 58 1.6 8.0 0.00 0.00 0.00 56 1017.6
20260507212403 18 148 0.0 8.0 0.00 0.00 0.00 54 1017.8
20260507211904 18 126 3.2 8.0 0.00 0.00 0.00 56 1017.8
20260507211404 18 79 3.2 9.7 0.00 0.00 0.00 57 1017.8
20260507210903 18 106 1.6 11.3 0.00 0.00 0.00 55 1018.0
20260507210404 18 175 0.0 11.3 0.00 0.00 0.00 55 1018.0
20260507205934 18 187 0.0 11.3 0.00 0.00 0.00 55 1018.0
20260507205404 18 181 6.4 11.3 0.00 0.00 0.00 57 1018.2
20260507204903 18 142 4.8 9.7 0.00 0.00 0.00 56 1018.2
20260507204403 18 94 0.0 9.7 0.00 0.00 0.00 58 1018.2
20260507203903 18 130 8.0 9.7 0.00 0.00 0.00 60 1018.3
20260507203403 18 106 3.2 11.3 0.00 0.00 0.00 60 1018.3
20260507202903 18 80 1.6 11.3 0.00 0.00 0.00 58 1018.3
20260507202403 18 62 1.6 11.3 0.00 0.00 0.00 58 1018.5
20260507201903 18 191 6.4 9.7 0.00 0.00 0.00 59 1018.5
20260507201403 17 123 4.8 9.7 0.00 0.00 0.00 61 1018.5
20260507200903 17 207 6.4 12.9 0.00 0.00 0.00 59 1018.7
20260507200403 17 122 0.0 12.9 0.00 0.00 0.00 59 1018.7
20260507195933 17 142 6.4 9.7 0.00 0.00 0.00 59 1018.7
20260507195403 17 126 1.6 9.7 0.00 0.00 0.00 62 1018.8
20260507194903 17 86 4.8 11.3 0.00 0.00 0.00 61 1018.8
20260507194403 17 156 1.6 11.3 0.00 0.00 0.00 59 1018.8
20260507193903 17 59 6.4 8.0 0.00 0.00 0.00 61 1018.8
20260507193403 17 49 4.8 6.4 0.00 0.00 0.00 59 1018.8
20260507192903 17 71 3.2 11.3 0.00 0.00 0.00 61 1018.8
20260507192403 17 223 1.6 11.3 0.00 0.00 0.00 59 1019.0
20260507191902 17 63 0.0 9.7 0.00 0.00 0.00 60 1019.0
20260507191402 17 59 3.2 9.7 0.00 0.00 0.00 60 1019.0
20260507190902 17 113 1.6 8.0 0.00 0.00 0.00 60 1019.2
20260507190402 17 194 1.6 8.0 0.00 0.00 0.00 61 1019.2
20260507185932 16 208 6.4 8.0 0.00 0.00 0.00 60 1019.2
20260507185402 16 89 8.0 9.7 0.00 0.00 0.00 60 1019.3
20260507184902 16 231 1.6 9.7 0.00 0.00 0.00 60 1019.3
20260507184402 16 76 8.0 8.0 0.00 0.00 0.00 63 1019.3
20260507183902 16 155 3.2 8.0 0.00 0.00 0.00 64 1019.3
20260507183402 16 208 3.2 8.0 0.00 0.00 0.00 63 1019.3
20260507182903 15 115 1.6 11.3 0.00 0.00 0.00 65 1019.3
20260507182402 16 5 0.0 11.3 0.00 0.00 0.00 64 1019.4
20260507181902 16 137 4.8 6.4 0.00 0.00 0.00 63 1019.4
20260507181404 16 71 0.0 8.0 0.00 0.00 0.00 63 1019.4
20260507180432 16 107 6.4 8.0 0.00 0.00 0.00 65 1019.5
20260507175903 16 85 0.0 8.0 0.00 0.00 0.00 65 1019.5
20260507175432 16 163 1.6 6.4 0.00 0.00 0.00 64 1019.7
20260507174902 16 101 3.2 4.8 0.00 0.00 0.00 66 1019.7
20260507174402 16 43 0.0 8.0 0.00 0.00 0.00 69 1019.7
20260507173932 15 16 3.2 8.0 0.00 0.00 0.00 70 1019.7
20260507173432 15 122 3.2 8.0 0.00 0.00 0.00 68 1019.7
20260507172902 15 98 3.2 8.0 0.00 0.00 0.00 68 1019.7
20260507172402 15 22 1.6 8.0 0.00 0.00 0.00 68 1019.7
20260507171932 15 74 3.2 8.0 0.00 0.00 0.00 70 1019.7
20260507171402 15 48 3.2 8.0 0.00 0.00 0.00 71 1019.7
20260507170902 15 148 3.2 8.0 0.00 0.00 0.00 69 1019.7
20260507170402 15 91 1.6 4.8 0.00 0.00 0.00 71 1019.7
20260507164902 14 32 4.8 8.0 0.00 0.00 0.00 72 1019.7
20260507164402 14 38 8.0 8.0 0.00 0.00 0.00 72 1019.7
20260507163902 14 200 0.0 6.4 0.00 0.00 0.00 73 1019.8
20260507163402 14 143 0.0 8.0 0.00 0.00 0.00 73 1019.8
20260507162901 13 128 0.0 8.0 0.00 0.00 0.00 74 1019.8
20260507162402 13 47 6.4 6.4 0.00 0.00 0.00 74 1019.7
20260507161932 13 63 3.2 6.4 0.00 0.00 0.00 74 1019.7
20260507161402 13 170 4.8 8.0 0.00 0.00 0.00 73 1019.7
20260507160902 14 97 3.2 8.0 0.00 0.00 0.00 73 1019.8
20260507160432 14 321 0.0 4.8 0.00 0.00 0.00 75 1019.8
20260507155932 13 317 0.0 6.4 0.00 0.00 0.00 78 1019.8
20260507155402 13 44 0.0 6.4 0.00 0.00 0.00 78 1019.9
20260507153402 12 360 4.8 6.4 0.00 0.00 0.00 79 1020.0
20260507152902 12 360 1.6 6.4 0.00 0.00 0.00 80 1020.0